Regional Weather Roundup
Issued by NWS Charleston, SC

Current Version | Previous Version | Graphics & Text | Print | Product List | Glossary On
Versions: 1 2 3 4 5 6 7 8 9 10 11 12 13 14 15 16 17 18 19 20 21 22 23 24 25 26 27 28 29 30 31 32 33 34 35 36 37 38 39 40 41 42 43 44 45 46 47 48 49 50
527 ASUS42 KCHS 281112 RWRCHS REGIONAL WEATHER ROUNDUP NATIONAL WEATHER SERVICE CHARLESTON SC 700 AM EDT SUN MAY 28 2017 NOTE: "FAIR" INDICATES FEW OR NO CLOUDS BELOW 12,000 FEET WITH NO SIGNIFICANT WEATHER AND/OR OBSTRUCTIONS TO VISIBILITY. NOT ALL STATIONS ARE QUALITY CONTROLLED. USE DATA WITH CAUTION... ESPECIALLY DEWPOINT OBSERVATIONS. SCZ027-030-031-034>040-042>050-281200- ...SOUTHEAST SOUTH CAROLINA... CITY SKY/WX TMP DP RH WIND PRES REMARKS N CHARLESTON PTCLDY 72 67 84 SW8 29.89R WATERFRONT PRK N/A 73 70 90 VRB3 29.87S JOHNS ISLAND FAIR 73 70 88 SW7 29.90R PINOPOLIS N/A 72 64 78 SW7 29.79S MONCKS CORNER FAIR 68 63 83 SW5 29.89R SUMMERVILLE FAIR 66 63 88 S3 29.90S BEAUFORT MCAS CLEAR 71 67 87 SW5 29.92R BEAUFORT ARPT FAIR 72 68 88 SW3 29.91R FOG HILTON HEAD IS CLEAR 73 66 78 SW6 29.93R WALTERBORO SUNNY 66 63 88 S5 29.91S ALLENDALE FAIR 68 64 88 CALM 29.88F ...SOUTHERN MIDLANDS AND PEE DEE... CITY SKY/WX TMP DP RH WIND PRES REMARKS GEORGETOWN FAIR 68 68 100 SW5 29.88S KINGSTREE FAIR 68 63 83 CALM 29.86R ORANGEBURG CLEAR 67 64 90 SW3 29.88R BARNWELL FAIR 72 66 83 SW5 29.90R AIKEN FAIR 70 64 83 SW7 29.92R MANNING FAIR 70 68 94 SW12 29.87R COLUMBIA MOCLDY 73 67 81 SW5 29.85R SUMTER CLEAR 71 65 81 S5 29.83R FLORENCE PTCLDY 69 64 84 SW6 29.84R MYRTLE BEACH CLEAR 72 66 83 SW7 29.87S N MYRTLE BEACH CLOUDY 73 69 87 SW9 29.85S $$ GAZ063-065-086>088-099>101-113>116-118-119-134>141-150-281200- ...SOUTHEAST GEORGIA... CITY SKY/WX TMP DP RH WIND PRES REMARKS SAVANNAH ARPT CLOUDY 69 62 78 SW3 29.93R HUNTER AAF CLOUDY 70 68 94 CALM 29.91R FORT STEWART MOCLDY 69 63 81 CALM 29.93R STATESBORO PTCLDY 72 70 95 SW3 29.92F SYLVANIA MOSUNNY 71 67 87 SW3 29.92S CLAXTON FAIR N/A N/A N/A CALM 29.94R ...CSRA...CENTRAL AND FAR SOUTHEAST GEORGIA... CITY SKY/WX TMP DP RH WIND PRES REMARKS THOMSON PTCLDY 71 66 84 NW7 29.97R AUGUSTA-BUSH PTCLDY 74 67 78 SW9 29.89R AUGUSTA-DANIEL MOCLDY 75 64 68 W5 29.91R SWAINSBORO FAIR 70 66 88 W5 29.94S VIDALIA PTCLDY 70 66 88 SW5 29.94F EASTMAN FAIR 72 69 92 W3 29.99R HAZLEHURST FAIR 72 72 100 SW5 29.95R ALMA PTCLDY 66 64 93 CALM 29.96R WAYCROSS CLOUDY 70 70 100 W3 29.97R FOG JESUP FAIR 64 61 88 CALM 29.96R BAXLEY FAIR 72 72 100 SW3 29.96R BRUNSWICK CLEAR 72 70 94 W5 29.96R SAINT SIMONS CLEAR 72 70 93 W8 29.95R $$ SCZ027-028-034-036>038-045-046-048>050-GAZ119-141-281200- ...LAKE AND SUPPLEMENTAL COASTAL OBSERVATIONS... STATION/POSITION TIME TEMP WIND PRES WAVE SWELL AIR SEA DIR/SP/G HT/PER HT/PER/DIR (UTC) (F) (DEG/KT/KT) (MB) (FT/S) (FT/S/D) WINYAH BAY NOT AVBL LAKE MURRAY 1020 74 230/ 8/ 9 1009.5 ACE BASIN NERRS 0945 70 CALM 1013.0 FORT PULASKI 1048 72 230/ 3/ 4 1013.7R SAPELO ISLAND 1000 72 240/ 5 1013.0 $$ ANZ835-935-AMZ111-154-330-350-352-354-370-450-454-472-281200- ...C-MAN AND BUOY OBSERVATIONS... STATION/POSITION TIME TEMP WIND PRES WAVE SWELL AIR SEA DIR/SP/G HT/PER HT/PER/DIR (UTC) (F) (DEG/KT/KT) (MB) (FT/S) (FT/S/D) BUOY 41004 1050 75 75 230/ 10/ 12 1012.3R 3/ 5 2/140/ 8 BUOY 41008 0950 77 77 260/ 8/ 10 1013.3 2/ 4 2/180/ 4 FOLLY BEACH CMAN 1000 74 220/ 6/ 7 1012.6F CAPERS NEARSHORE 1008 79 77 240/ 10/ 14 1011.8F FRIPP NEARSHORE 1008 77 77 230/ 8/ 12 1012.1F STATION/POSITION TIME TEMP WIND PRES WAVE SWELL AIR SEA DIR/SP/G HT/PER HT/PER/DIR (UTC) (F) (DEG/KT/KT) (MB) (FT/S) (FT/S/D) 5E ST. MARYS GA 1030 78 N/A 2/ 8 FRYING PAN BUOY 1050 75 75 230/ 16/ 17 1011.4F 4/ 5 BUOY 41025 1050 75 76 240/ 14/ 16 1010.3R 3/ 6 2/130/ 8 CAPE LOOKOUT NC 1000 74 230/ 8/ 10 1010.3S BUOY 41002 1050 76 77 230/ 14/ 16 1014.1R 3/ 7 2/110/12 BUOY 41010 1050 79 79 190/ 8/ 8 1015.1R 2/ 8 2/ 90/ 8 ST AUGUSTINE FL 1100 69 76 240/ 6/ 8 1016.1R $$

USA.gov is the U.S. government's official web portal to all federal, state and local government web resources and services.